www.pogodaiklimat.ru

Погода и климат >> Архив погоды >> Россия >> Якутия >> Себян-Кюель


ПОГОДА в Себян-Кюеле

  • Прогноз погоды в Себян-Кюеле
  • Монитор погоды в Себян-Кюеле
  • Климат города

АРХИВ ПОГОДЫ в Себян-Кюеле

Время (UTC), дата Ветер
(напр.,м/с)
 
Видим.   Явления Облачность Т
(С)
Тd
(С)
f
(%)
Тe
(С)
Тes
(С)
Комфортность P
(гПа)
Po
(гПа)
Тmin
(С)
Tmax
(С)
R
(мм)
R24
(мм)
S
(см)
03 20.04 З 2 50 км 8/0 2000 м
[As op]
-3.2 -9.6 61 -7 -4 1010.1 916.3
06 20.04 З 2 50 км 4/0 2000 м
[As op]
-2.2 -10.8 52 -6 -2 1010.9 917.3
09 20.04 ЮЗ 1 50 км 3/0
[Cs]
-3.0 -12.2 49 -5 -3 1012.0 918.1
12 20.04 штиль 0 50 км 3/0
[Cs]
-12.6 -16.1 75 -13 -13 1017.0 919.3 -2.2
15 20.04 штиль 0 50 км ясно -19.0 -20.2 90 -19 -19 1020.5 920.2
18 20.04 штиль 0 50 км ясно -20.4 -21.6 90 -20 -20 1021.5 920.6
21 20.04 штиль 0 50 км 10/0 2000 м
[Ac As]
-14.6 -15.9 90 -15 -14 1018.3 919.9
00 21.04 З 3 50 км 10/10 540 м
[Sc]
-8.3 -12.0 75 -14 -14 1015.7 919.6 -21.5 42
03 21.04 ЮЗ 3 50 км 10/10 570 м
[Sc]
-5.4 -13.0 55 -10 -10 1014.6 919.6
06 21.04 З 3 50 км 10/10 1110 м
[Sc]
-4.9 -15.0 45 -10 -10 1015.0 920.1
09 21.04 ЮЗ 2 50 км ясно -4.4 -14.1 47 -8 -7 1016.2 921.4
12 21.04 ЮЗ 1 50 км ясно -10.5 -16.8 60 -13 -13 1020.0 922.7 -3.8
15 21.04 штиль 0 50 км ясно -14.8 -16.8 85 -15 -15 1022.5 923.4
18 21.04 штиль 0 50 км ясно -19.4 -20.6 90 -19 -19 1025.4 924.3
21 21.04 штиль 0 50 км ясно -18.5 -19.7 90 -19 -18 1025.5 924.8
00 22.04 штиль 0 50 км ясно -9.0 -14.5 64 -9 -3 1020.7 923.9 -20.5 39
03 22.04 ЮЗ 1 50 км 6/4 1000 м
[Sc Ci fib]
-3.9 -13.2 48 -6 0 1018.1 923.2
06 22.04 З 3 50 км 10/4 1000 м
[Sc Ci fib]
-3.2 -13.1 46 -8 -5 1016.6 922.1
09 22.04 ЮЗ 2 50 км 10/0 2000 м
[Ac As]
-2.6 -11.0 52 -6 -6 1015.9 921.7
12 22.04 С 1 50 км 10/0 2000 м
[As trans]
-4.0 -9.4 66 -6 -6 1016.0 921.3 -1.4
15 22.04 З 1 50 км 10/0 2000 м
[Ac trans Ci fib]
-4.0 -8.5 71 -6 -6 1016.0 921.3
18 22.04 З 1 50 км 10/0 2000 м
[Ac trans Ci fib]
-5.9 -10.2 72 -8 -8 1016.3 921.0
21 22.04 З 1 50 км 10/0 2000 м
[Ac trans Ci fib]
-8.1 -11.7 75 -10 -10 1016.8 920.7
00 23.04 З 1 50 км 10/0 2000 м
[Ac trans Ci fib]
-1.0 -8.4 57 -3 0 1012.9 919.6 -9.2 39
03 23.04 Ю 4 50 км 8/6 1380 м
[Sc Ac trans Ci fib]
+0.4 -8.8 50 -4 -3 1011.6 918.9
06 23.04 ЮВ 7
{13}
50 км 8/6 1000 м
[Sc Ac trans]
+1.2 -8.7 48 -5 -4 1010.0 917.6
09 23.04 Ю 6
{12}
50 км 8/6 1080 м
[Sc Ac trans]
+0.8 -7.6 53 -5 -5 1009.3 916.9
12 23.04 В 2
{13}
50 км 10/8 1300 м
[Sc Ac As]
-0.4 -7.9 57 -4 -4 1008.0 915.3 +1.3
15 23.04 ЮВ 3 50 км 10/8 1300 м
[Sc Ac As]
-0.6 -7.8 58 -5 -5 1005.1 912.6
18 23.04 Ю 4 50 км 10/6 1380 м
[Sc Ac As]
-2.6 -9.1 61 -8 -8 1004.1 911.0
21 23.04 Ю 2 50 км 10/3 1000 м
[Sc Ac As]
-5.5 -11.6 62 -9 -9 1004.3 910.2
00 24.04 З 7-12
{12}
4000 м слабый снег {метель} 10/10 300 м
[St]
-1.8 -4.2 84 -9 -9 997.4 905.2 -6.0 0.3 39
03 24.04 З 7-10
{13}
50 км позёмок {снег, метель} 8/5 600 м
[Sc Ci fib]
-6.8 -13.5 59 -15 -14 999.4 905.3
06 24.04 З 7-11
{14}
50 км позёмок {снег, метель} 5/5 600 м
[Sc]
-7.8 -15.7 53 -16 -15 1002.1 907.4
09 24.04 З 7-12
{14}
50 км позёмок {метель} 5/3 600 м
[Sc Ci fib]
-8.8 -16.7 53 -18 -17 1003.8 908.6
12 24.04 Ю 2
{12}
50 км {метель} 3/3 600 м
[Sc]
-11.2 -17.2 61 -16 -16 1005.8 909.6 -1.4 0.0
15 24.04 штиль 0 50 км ясно -19.5 -22.1 80 -20 -20 1009.9 910.3
18 24.04 штиль 0 50 км ясно -20.4 -22.3 85 -20 -20 1010.9 910.9
21 24.04 штиль 0 50 км ясно -19.2 -21.1 85 -19 -18 1011.2 911.6
00 25.04 штиль 0 50 км ясно -11.6 -17.8 60 -12 -5 1008.4 911.8 -24.9 38
03 25.04 штиль 0 50 км ясно -9.6 -17.3 53 -10 +2 1008.7 912.8
06 25.04 З 3 50 км ясно -7.6 -18.9 40 -13 -8 1010.1 914.7
09 25.04 З 2 50 км ясно -7.8 -19.3 39 -12 -10 1011.6 916.0
12 25.04 ЮЗ 2 50 км 4/0
[Ci fib]
-12.0 -19.2 55 -17 -17 1015.2 917.8 -6.9
15 25.04 штиль 0 50 км ясно -22.5 -24.3 85 -23 -23 1021.0 919.2
18 25.04 штиль 0 50 км ясно -24.8 -26.0 90 -25 -25 1023.3 920.4
21 25.04 штиль 0 50 км ясно -21.9 -23.7 85 -22 -21 1023.1 921.3
00 26.04 штиль 0 50 км ясно -11.2 -17.4 60 -11 -4 1018.3 921.0 -26.6 38
03 26.04 штиль 0 50 км ясно -3.4 -14.0 44 -4 +8 1013.5 919.3
06 26.04 ЮЗ 1 50 км ясно -1.8 -11.6 47 -3 +4 1011.5 918.0
09 26.04 З 2 50 км ясно -2.0 -11.5 48 -5 -4 1010.7 917.2
12 26.04 ЮЗ 2 50 км ясно -10.5 -16.8 60 -15 -15 1013.9 917.2 -1.8
15 26.04 З 2 50 км ясно -17.5 -19.4 85 -23 -23 1016.2 916.9
18 26.04 З 2 50 км ясно -20.0 -21.2 90 -26 -26 1016.5 916.2
21 26.04 З 2 50 км ясно -19.4 -20.6 90 -25 -24 1015.3 915.3

 

Местоположение метеостанции Себян-Кюель (Якутия, Россия): широта 65.30 долгота 130.00 высота над уровнем моря 777 м.

В архиве по умолчанию представлена погода в Себян-Кюеле за последнюю неделю. Архивные данные за месяц целиком и за предыдущие месяцы, начиная с января 2011 года, Вы можете получить, выбрав интересующий диапазон дат из раскрывающегося списка и нажав кнопку "Ввод!".


*Определитесь, кто Вы:
робот инопланетянин человек

Внимание! Время в таблицах - всемирное. Для получения местного времени необходимо прибавить поправку, которая в Себян-Кюеле равна 9 ч.

Смотрите также архив погоды в соседних городах и на ближайших метеорологических станциях:

Погода в Сеген-Кюели (Якутия, Россия) (145 км)
Погода в Екюччю (Якутия, Россия) (179 км)
Погода в Сангаре (Якутия, Россия) (195 км)
Погода в Батамае (Якутия, Россия) (200 км)
Погода в Сого-Хае (Якутия, Россия) (205 км)
Погода в Верхоянском Перевозе (Якутия, Россия) (240 км)
Погода в Иэме (Якутия, Россия) (269 км)
Погода в Бестяхской Звероферме (Якутия, Россия) (274 км)
Погода в Батагай-Алыте (Якутия, Россия) (276 км)
Погода в Намцах (Якутия, Россия) (288 км)

Пояснения к столбцам:

Ветер - указаны скорость ветра в м/с - средняя за 10 мин, порывы в срок и между сроками (в фигурных скобках) и направление, откуда дует ветер: С - северный, СВ - северо-восточный, В - восточный, ЮВ - юго-восточный, Ю - южный, ЮЗ - юго-западный, З - западный, СЗ - северо-западный.
Видимость - горизонтальная дальность видимости в метрах или километрах. При видимости от 1 до 10 км при отсутствии осадков обычно наблюдается дымка, при ухудшении видимости до 1 км и менее - туман. В сухую погоду видимость может ухудшаться дымом, пылью или мглою.
Явления - указаны атмосферные явления, наблюдавшиеся в срок или в последний час перед сроком; фигурными скобками обозначены явления, наблюдавшиеся между сроками (за 1-3 часа до срока); квадратными скобками обозначены град или гололедные отложения с указанием их диаметра в мм.
Облачность - указаны через наклонную черту общая и нижняя облачность в баллах и высота нижней границы облаков в метрах; квадратными скобками обозначены формы облаков: Ci - перистые, Cs - перисто-слоистые, Cc - перисто-кучевые, Ac - высококучевые, As - высокослоистые, Sc - слоисто-кучевые, Ns - слоисто-дождевые, Cu - кучевые, Cb - кучево-дождевые. Подробнее классификацию облаков см. в Атласе облаков (PDF).
T - Температура воздуха - температура, измеренная на высоте 2 м над землей.
Td - Температура точки росы - температура, при понижении до которой содержащийся в воздухе водяной пар достигнет насыщения.
f - Относительная влажность воздуха - влажноcть воздуха, измеренная на высоте 2 м над землей.
Te - Эффективная температура - температура, которую ощущает одетый по сезону человек в тени. Характеристика душности погоды. При расчете учитывается влияние влажности воздуха и скорости ветра на теплоощущения человека.
Tes - Эффективная температура на солнце - температура, которую ощущает человек, с поправкой на солнечный нагрев. Характеристика знойности погоды. Зависит от высоты солнца над горизонтом, облачности и скорости ветра. Ночью, в пасмурную погоду, а также при ветре 12 м/с и более поправка равна нулю.
P - Атмосферное давление - приведенное к уровню моря атмосферное давление.
Po - Атмосферное давление - измеренное на уровне метеостанции атмосферное давление.
Tmin - Минимальная температура - минимум температуры воздуха на высоте 2 м над землей.
Tmax - Максимальная температура - максимум температуры воздуха на высоте 2 м над землей.
R - Количество осадков - Количество выпавших осадков за период времени, мм. При наведении курсора мыши на число - период времени, за который выпало указанное количество осадков.
R24 - Количество осадков - Количество выпавших осадков за 24 часа, мм.
S - Снежный покров - Высота снежного покрова, см. При наведении курсора мыши на число - состояние снежного покрова и степень покрытия местности в баллах.